New Haven, CT

10:16 PM EDT on May 26, 2018 (GMT -0400)
Tweed-New Haven

Weather History for KHVN - April, 2014

Change the Weather History Date:

Tuesday, April 1, 2014

  Actual Average Record
Temperature  
Mean Temperature 42 °F -  
Max Temperature 51 °F 50 °F 71 °F (1986)
Min Temperature 35 °F 36 °F 26 °F (1970)
Degree Days  
Heating Degree Days 22    
Moisture  
Dew Point 30 °F    
Average Humidity 62    
Maximum Humidity 83    
Minimum Humidity 44    
Precipitation  
Precipitation 0.00 in - - ()
Sea Level Pressure  
Sea Level Pressure 30.07 in    
Wind  
Wind Speed 7 mph (WNW)    
Max Wind Speed 10 mph    
Max Gust Speed 17 mph    
Visibility 10 miles    
Events      
Averages and records for this station are not official NWS values.
T = Trace of Precipitation, MM = Missing Value Source: NWS Daily Summary

Daily Weather History Graph

Daily Weather History Graph

Search for Another Location

Airport or City:

Astronomy

Apr. 01, 2014 Rise Set
Actual Time 6:34 AM EDT 7:16 PM EDT
Civil Twilight 6:06 AM EDT 7:44 PM EDT
Nautical Twilight 5:34 AM EDT 8:17 PM EDT
Astronomical Twilight 5:00 AM EDT 8:51 PM EDT
Moon 7:34 AM EDT (4/1) 9:37 PM EDT (4/1)
Length of Visible Light 13h 37m
Length of Day
12h 41m
Waxing Crescent, 4% of the Moon is Illuminated
Apr 1
Waxing Crescent
Apr 7
First Quarter
Apr 15
Full
Apr 22
Last Quarter
Apr 29
New

Hourly Weather History & Observations

Time (EDT) Temp. Windchill Dew Point Humidity Pressure Visibility Wind Dir Wind Speed Gust Speed Precip Events Conditions
12:53 AM 39.0 °F 34.0 °F 26.1 °F 60% 30.05 in 10.0 mi North 6.9 mph - N/A   Overcast
1:53 AM 39.0 °F 32.3 °F 27.0 °F 62% 30.06 in 10.0 mi NNW 10.4 mph - N/A   Overcast
2:53 AM 37.9 °F 32.7 °F 26.1 °F 62% 30.06 in 10.0 mi NNW 6.9 mph - N/A   Clear
3:53 AM 36.0 °F 32.1 °F 26.1 °F 67% 30.06 in 10.0 mi NW 4.6 mph - N/A   Clear
4:53 AM 36.0 °F 30.3 °F 27.0 °F 70% 30.06 in 10.0 mi NW 6.9 mph - N/A   Clear
5:53 AM 36.0 °F 31.1 °F 27.0 °F 70% 30.06 in 10.0 mi WNW 5.8 mph - N/A   Clear
6:53 AM 35.1 °F 30.1 °F 27.0 °F 72% 30.09 in 10.0 mi NW 5.8 mph - N/A   Clear
7:53 AM 37.0 °F 32.4 °F 28.0 °F 70% 30.11 in 10.0 mi NW 5.8 mph - N/A   Clear
8:53 AM 39.9 °F 34.5 °F 27.0 °F 60% 30.11 in 10.0 mi NW 8.1 mph - N/A   Clear
9:53 AM 44.1 °F 39.5 °F 28.9 °F 55% 30.10 in 10.0 mi North 8.1 mph - N/A   Clear
10:53 AM 48.0 °F - 28.9 °F 48% 30.09 in 10.0 mi North 10.4 mph - N/A   Clear
11:53 AM 50.0 °F - 28.9 °F 44% 30.08 in 10.0 mi WNW 6.9 mph - N/A   Clear
12:53 PM 46.0 °F 41.0 °F 30.9 °F 56% 30.06 in 10.0 mi SSW 10.4 mph 17.3 mph N/A   Clear
1:53 PM 46.9 °F - 32.0 °F 56% 30.04 in 10.0 mi SSW 8.1 mph - N/A   Clear
2:53 PM 48.0 °F - 30.9 °F 52% 30.04 in 10.0 mi SSW 6.9 mph - N/A   Clear
3:53 PM 50.0 °F - 30.9 °F 48% 30.02 in 10.0 mi South 6.9 mph - N/A   Scattered Clouds
4:53 PM 50.0 °F - 32.0 °F 50% 30.01 in 10.0 mi South 4.6 mph - N/A   Overcast
5:53 PM 48.0 °F - 32.0 °F 54% 30.01 in 10.0 mi Calm Calm - N/A   Overcast
6:53 PM 48.0 °F - 30.0 °F 50% 30.02 in 10.0 mi Calm Calm - N/A   Mostly Cloudy
7:53 PM 43.0 °F 37.2 °F 33.1 °F 68% 30.06 in 10.0 mi ESE 10.4 mph - N/A   Mostly Cloudy
8:53 PM 43.0 °F 38.2 °F 35.1 °F 74% 30.09 in 10.0 mi East 8.1 mph - N/A   Clear
9:53 PM 39.9 °F 34.5 °F 35.1 °F 83% 30.11 in 10.0 mi SE 8.1 mph - N/A   Clear
10:53 PM 39.9 °F 33.9 °F 35.1 °F 83% 30.10 in 10.0 mi SE 9.2 mph - N/A   Clear
11:53 PM 39.9 °F 35.1 °F 35.1 °F 83% 30.11 in 10.0 mi SE 6.9 mph - N/A   Clear